Weather History for Madison, SD

Change the Weather History Date:

Tuesday, October 29, 2013

  Actual Average Record
Temperature  
Mean Temperature 32 °F -  
Max Temperature 35 °F 52 °F 59 °F (2010)
Min Temperature 30 °F 30 °F 26 °F (2010)
Degree Days  
Heating Degree Days 32    
Moisture  
Dew Point 33 °F    
Average Humidity 98    
Maximum Humidity 100    
Minimum Humidity 69    
Precipitation  
Precipitation 0.10 in - - ()
Sea Level Pressure  
Sea Level Pressure 30.14 in    
Wind  
Wind Speed 13 mph (ENE)    
Max Wind Speed 20 mph    
Max Gust Speed 26 mph    
Visibility 7 miles    
Events Rain    
Averages and records for this station are not official NWS values.
T = Trace of Precipitation, MM = Missing Value Source: NWS Daily Summary

Daily Weather History Graph

Daily Weather History Graph

Search for Another Location

Airport:

Trip Planner

Search our weather history database for the weather conditions in past years. The results will help you decide how hot, cold, wet, or windy it might be!

Date:

Astronomy

Oct. 29, 2013 Rise Set
Actual Time 8:01 AM CDT 6:22 PM CDT
Civil Twilight 7:31 AM CDT 6:52 PM CDT
Nautical Twilight 6:57 AM CDT 7:25 PM CDT
Astronomical Twilight 6:23 AM CDT 7:59 PM CDT
Moon 2:42 AM CDT (10/29) 3:45 PM CDT (10/29)
Length of Visible Light 11h 20m
Length of Day
10h 20m
Waning Crescent, 25% of the Moon is Illuminated
Oct 29
Waning Crescent
Nov 3
New
Nov 9
First Quarter
Nov 17
Full
Nov 25
Last Quarter

Hourly Weather History & Observations

Time (CDT) Temp. Windchill Dew Point Humidity Pressure Visibility Wind Dir Wind Speed Gust Speed Precip Events Conditions
12:10 AM 32.0 °F 22.5 °F 23.0 °F 69% 30.29 in 10.0 mi East 12.7 mph - N/A   Overcast
12:30 AM 32.0 °F 23.0 °F 24.8 °F 75% 30.31 in 10.0 mi East 11.5 mph - N/A   Mostly Cloudy
12:50 AM 32.0 °F 22.1 °F 26.6 °F 80% 30.29 in 10.0 mi East 13.8 mph - N/A Rain Light Rain
1:10 AM 32.0 °F 21.6 °F 28.4 °F 87% 30.28 in 10.0 mi ENE 15.0 mph - 0.01 in Rain Rain
1:30 AM 32.0 °F 21.2 °F 30.2 °F 93% 30.27 in 10.0 mi ENE 16.1 mph - 0.03 in Rain Light Rain
1:50 AM 32.0 °F 20.5 °F 30.2 °F 93% 30.27 in 10.0 mi ENE 18.4 mph - 0.03 in   Overcast
2:10 AM 32.0 °F 22.1 °F 30.2 °F 93% 30.27 in 10.0 mi ENE 13.8 mph 18.4 mph N/A Rain Light Rain
2:30 AM 32.0 °F 22.5 °F 30.2 °F 93% 30.28 in 10.0 mi ENE 12.7 mph 18.4 mph N/A Rain Light Rain
2:50 AM 32.0 °F 21.6 °F 32.0 °F 100% 30.27 in 10.0 mi ENE 15.0 mph 20.7 mph 0.01 in Rain Light Rain
3:10 AM 32.0 °F 22.1 °F 32.0 °F 100% 30.27 in 8.0 mi ENE 13.8 mph - N/A   Overcast
3:30 AM 32.0 °F 23.0 °F 32.0 °F 100% 30.27 in 10.0 mi ENE 11.5 mph 19.6 mph 0.01 in Rain Light Rain
3:50 AM 32.0 °F 21.6 °F 32.0 °F 100% 30.26 in 10.0 mi ENE 15.0 mph - 0.02 in Rain Light Rain
4:10 AM 30.2 °F 18.5 °F 30.2 °F 100% 30.25 in 10.0 mi ENE 17.3 mph 21.9 mph N/A   Overcast
4:30 AM 30.2 °F 18.5 °F 30.2 °F 100% 30.24 in 10.0 mi ENE 17.3 mph 24.2 mph 0.01 in Rain Light Freezing Rain
4:50 AM 30.2 °F 17.8 °F 30.2 °F 100% 30.22 in 10.0 mi ENE 19.6 mph 26.5 mph 0.01 in Rain Light Freezing Rain
5:10 AM 30.2 °F 18.1 °F 30.2 °F 100% 30.22 in 10.0 mi ENE 18.4 mph 23.0 mph N/A   Overcast
5:30 AM 30.2 °F 18.9 °F 30.2 °F 100% 30.21 in 10.0 mi ENE 16.1 mph 21.9 mph N/A   Overcast
5:50 AM 30.2 °F 18.1 °F 30.2 °F 100% 30.21 in 10.0 mi ENE 18.4 mph 23.0 mph N/A   Overcast
6:10 AM 30.2 °F 18.5 °F 30.2 °F 100% 30.22 in 10.0 mi ENE 17.3 mph - N/A   Overcast
6:30 AM 30.2 °F 19.3 °F 30.2 °F 100% 30.22 in 10.0 mi ENE 15.0 mph - N/A   Overcast
6:50 AM 30.2 °F 19.3 °F 30.2 °F 100% 30.21 in 10.0 mi ENE 15.0 mph - N/A   Overcast
7:10 AM 30.2 °F 20.2 °F 30.2 °F 100% 30.20 in 10.0 mi East 12.7 mph - N/A   Overcast
7:30 AM 32.0 °F 21.2 °F 32.0 °F 100% 30.20 in 10.0 mi East 16.1 mph 21.9 mph N/A   Overcast
7:50 AM 32.0 °F 22.1 °F 32.0 °F 100% 30.19 in 10.0 mi East 13.8 mph - N/A   Overcast
8:10 AM 32.0 °F 21.6 °F 32.0 °F 100% 30.19 in 10.0 mi East 15.0 mph - N/A   Overcast
8:30 AM 32.0 °F 21.6 °F 32.0 °F 100% 30.19 in 10.0 mi East 15.0 mph 18.4 mph N/A   Overcast
8:50 AM 32.0 °F 21.2 °F 32.0 °F 100% 30.17 in 10.0 mi East 16.1 mph 21.9 mph N/A   Overcast
9:10 AM 32.0 °F 21.2 °F 32.0 °F 100% 30.17 in 10.0 mi East 16.1 mph - N/A   Overcast
9:30 AM 32.0 °F 22.1 °F 32.0 °F 100% 30.17 in 10.0 mi East 13.8 mph - N/A Rain Light Rain
9:50 AM 32.0 °F 21.2 °F 32.0 °F 100% 30.16 in 2.5 mi East 16.1 mph - N/A Rain Light Rain
10:10 AM 32.0 °F 22.1 °F 32.0 °F 100% 30.16 in 3.0 mi East 13.8 mph - N/A Rain Light Rain
10:30 AM 32.0 °F 23.0 °F 32.0 °F 100% 30.16 in 4.0 mi ESE 11.5 mph 17.3 mph N/A Rain Light Rain
10:50 AM 32.0 °F 22.5 °F 32.0 °F 100% 30.15 in 2.0 mi ESE 12.7 mph - N/A Rain Light Rain
11:10 AM 32.0 °F 22.5 °F 32.0 °F 100% 30.15 in 5.0 mi ESE 12.7 mph 19.6 mph N/A   Overcast
11:30 AM 32.0 °F 24.2 °F 32.0 °F 100% 30.15 in 10.0 mi ESE 9.2 mph - N/A   Overcast
11:50 AM 32.0 °F 25.6 °F 32.0 °F 100% 30.15 in 10.0 mi East 6.9 mph - N/A   Overcast
12:10 PM 32.0 °F 24.8 °F 32.0 °F 100% 30.15 in 10.0 mi East 8.1 mph - N/A Rain Light Rain
12:30 PM 32.0 °F 24.8 °F 32.0 °F 100% 30.14 in 10.0 mi East 8.1 mph - N/A Rain Light Rain
12:50 PM 32.0 °F 24.8 °F 32.0 °F 100% 30.13 in 6.0 mi East 8.1 mph - N/A Rain Light Rain
1:10 PM 32.0 °F 24.2 °F 32.0 °F 100% 30.12 in 7.0 mi ENE 9.2 mph - N/A Rain Light Rain
1:30 PM 32.0 °F 24.2 °F 32.0 °F 100% 30.11 in 5.0 mi ENE 9.2 mph - 0.01 in Rain Light Rain
1:50 PM 32.0 °F 22.5 °F 32.0 °F 100% 30.10 in 6.0 mi ENE 12.7 mph - 0.02 in Rain Light Rain
2:10 PM 32.0 °F 22.5 °F 32.0 °F 100% 30.09 in 10.0 mi ENE 12.7 mph - N/A Rain Light Rain
2:30 PM 33.8 °F 23.9 °F 33.8 °F 100% 30.07 in 10.0 mi East 15.0 mph - N/A Rain Light Rain
2:50 PM 33.8 °F 24.3 °F 33.8 °F 100% 30.06 in 10.0 mi East 13.8 mph - N/A Rain Light Rain
3:10 PM 33.8 °F 25.3 °F 33.8 °F 100% 30.05 in 10.0 mi ENE 11.5 mph - N/A Rain Light Rain
3:30 PM 35.6 °F 28.0 °F 35.6 °F 100% 30.05 in 10.0 mi NE 10.4 mph - N/A Rain Light Rain
3:50 PM 35.6 °F 28.0 °F 35.6 °F 100% 30.05 in 10.0 mi ENE 10.4 mph - N/A   Overcast
4:10 PM 35.6 °F 28.6 °F 35.6 °F 100% 30.05 in 10.0 mi NE 9.2 mph - N/A   Overcast
4:30 PM 35.6 °F 28.0 °F 35.6 °F 100% 30.05 in 3.0 mi NE 10.4 mph - N/A   Overcast
4:50 PM 35.6 °F 29.2 °F 35.6 °F 100% 30.04 in 3.0 mi ENE 8.1 mph - N/A Rain Light Rain
5:10 PM 35.6 °F 28.6 °F 35.6 °F 100% 30.04 in 1.8 mi ENE 9.2 mph - N/A Rain Light Rain
5:30 PM 35.6 °F 28.6 °F 35.6 °F 100% 30.04 in 3.0 mi ENE 9.2 mph - N/A   Overcast
5:50 PM 35.6 °F 28.0 °F 35.6 °F 100% 30.04 in 1.8 mi ENE 10.4 mph - N/A   Overcast
6:10 PM 35.6 °F 27.5 °F 35.6 °F 100% 30.03 in 2.5 mi ENE 11.5 mph - N/A   Overcast
6:30 PM 35.6 °F 27.5 °F 35.6 °F 100% 30.04 in 3.0 mi East 11.5 mph - N/A   Overcast
6:50 PM 35.6 °F 28.0 °F 35.6 °F 100% 30.03 in 3.0 mi East 10.4 mph - N/A   Overcast
7:10 PM 35.6 °F 28.0 °F 35.6 °F 100% 30.04 in 2.5 mi ENE 10.4 mph - N/A   Overcast
7:30 PM 35.6 °F 28.0 °F 35.6 °F 100% 30.04 in 2.0 mi ENE 10.4 mph - N/A   Overcast
7:50 PM 35.6 °F 28.0 °F 35.6 °F 100% 30.05 in 2.0 mi ENE 10.4 mph - N/A   Overcast
8:10 PM 35.6 °F 29.9 °F 35.6 °F 100% 30.05 in 1.8 mi ENE 6.9 mph - N/A   Overcast
8:30 PM 35.6 °F 29.2 °F 35.6 °F 100% 30.04 in 1.5 mi ENE 8.1 mph - N/A   Overcast
8:50 PM 35.6 °F 28.6 °F 35.6 °F 100% 30.03 in 1.8 mi ENE 9.2 mph - N/A   Overcast
9:10 PM 35.6 °F 28.0 °F 35.6 °F 100% 30.03 in 1.8 mi East 10.4 mph - N/A   Overcast
9:30 PM 35.6 °F 30.7 °F 35.6 °F 100% 30.04 in 2.0 mi ENE 5.8 mph - N/A   Overcast
9:50 PM 35.6 °F 29.9 °F 35.6 °F 100% 30.04 in 1.8 mi ENE 6.9 mph - N/A Rain Light Rain
10:10 PM 35.6 °F 30.7 °F 35.6 °F 100% 30.05 in 1.8 mi NE 5.8 mph - N/A Rain Light Rain
10:30 PM 35.6 °F 29.9 °F 35.6 °F 100% 30.04 in 1.5 mi ENE 6.9 mph - N/A Rain Light Rain
10:50 PM 35.6 °F 29.2 °F 35.6 °F 100% 30.04 in 2.5 mi ENE 8.1 mph - N/A Rain Light Rain
11:10 PM 35.6 °F 29.9 °F 35.6 °F 100% 30.04 in 2.5 mi NE 6.9 mph - N/A Rain Light Rain
11:30 PM 35.6 °F 29.9 °F 35.6 °F 100% 30.03 in 3.0 mi NE 6.9 mph - 0.01 in Rain Light Rain
11:50 PM 35.6 °F 29.2 °F 35.6 °F 100% 30.02 in 3.0 mi ENE 8.1 mph - 0.01 in Rain Light Rain